[[{"header":{"parameterUnit":"m.s-1","parameterCategory":1,"la1":30.2991,"la2":30.254,"lo1":-89.0895,"lo2":-89.0444,"dy":0.0017,"dx":0.0017,"nx":28,"ny":28,"refTime":"2024-05-14T21:00:00:Z","depth":0,"parameterNumber":2,"parameterNumberName":"U-component_of_WINDS"},"data":[0,0,0,0,0,0,0,0,0,0,0,0,0,0,0,0,0,0,0,0,0,0,0,0,0,0,0,0,0,0,0,0,0,0,0,0,0,0,0,0,0,0,0,0,0,0,0,0,0,0,0,0,0,0,0,0,0,0,0.1782,0.1783,0,0.1852,0.1853,0.1853,0.1855,0.1854,0.1853,0.1853,0.193,0.1932,0.1935,0,0,0,0,0,0,0,0,0,0,0,0,0,0.1659,0.1661,0.1782,0.1783,0.1784,0.1852,0.1853,0.1854,0.1855,0.1854,0.1853,0.1852,0.1929,0.1932,0.1935,0,0,0,0,0,0,0,0,0,0,0,0,0,0.1719,0.1662,0.1782,0.1793,0.1795,0.1851,0.1853,0.1854,0.1856,0.1854,0.1853,0.1852,0.1928,0.1932,0.1936,0.1989,0,0,0.1949,0.1951,0,0,0,0,0,0,0,0,0.1715,0.1723,0.179,0.1792,0.1794,0.1843,0.1837,0.1899,0.1856,0.1833,0.1853,0.1851,0.1902,0.1909,0.1925,0.1992,0.1995,0.1949,0.1952,0.1954,0.1955,0,0,0,0,0,0,0,0.1711,0.172,0.181,0.1791,0.1794,0.1797,0.1804,0.1849,0.1874,0.1834,0.1835,0.1843,0.1903,0.1921,0.1927,0.1997,0.1949,0.1953,0.1956,0.1957,0.2116,0.2117,0,0,0,0,0,0,0.1704,0.1717,0.1808,0.1812,0.1751,0.18,0.1808,0.1829,0.1874,0.1879,0.1844,0.1842,0.1914,0.1922,0.1929,0.1997,0.1954,0.1958,0.196,0.2114,0.2116,0.2118,0,0,0,0,0,0,0.1701,0.1712,0.1805,0.1765,0.1777,0.1803,0.1827,0.1831,0.1848,0.188,0.1886,0.1856,0.1913,0.1923,0.1974,0.2,0.196,0.1964,0.2112,0.2115,0.2117,0.2131,0,0,0,0,0,0,0.1698,0.1711,0.1729,0.1765,0.1779,0.1847,0.1829,0.1833,0.1855,0.1854,0.1894,0.1899,0.1913,0.1968,0.1979,0.2005,0.1967,0.211,0.2113,0.2116,0.2128,0.2133,0.2138,0,0,0,0,0,0.1693,0.1731,0.173,0.1741,0.1802,0.1848,0.1856,0.1869,0.1857,0.1877,0.1898,0.1898,0.1994,0.1973,0.1985,0.2013,0.2108,0.2112,0.2116,0.2126,0.2132,0.2138,0,0,0,0,0,0,0.1699,0.1736,0.1735,0.1785,0.1813,0.1848,0.1874,0.1875,0.1909,0.1907,0.1924,0.1933,0.1985,0.2004,0.1979,0.2069,0.205,0.2057,0.2054,0.206,0.2065,0.2061,0.1971,0,0,0,0,0,0.1706,0.1738,0.1769,0.181,0.1824,0.1846,0.1867,0.1875,0.1906,0.1918,0.1943,0.1975,0.2013,0.2037,0.2073,0.213,0.2142,0.2156,0.2161,0.2164,0.217,0.2206,0.2214,0.213,0.213,0.213,0,0,0.172,0.1745,0.1764,0.1812,0.1835,0.1871,0.1856,0.1894,0.1922,0.1924,0.1975,0.1994,0.2031,0.2086,0.2112,0.2104,0.2196,0.2169,0.2172,0.2176,0.2211,0.2219,0.2226,0.2132,0.2132,0.2131,0,0,0.1766,0.1786,0.1824,0.1847,0.1882,0.1897,0.1906,0.1941,0.1954,0.2004,0.2008,0.2042,0.2106,0.2133,0.2155,0.2214,0.2217,0.2226,0.2252,0.2286,0.2293,0.2299,0.2324,0.2332,0.2231,0.2231,0.2231,0,0.1781,0.1833,0.1844,0.1882,0.1905,0.1907,0.1948,0.1971,0.2016,0.2033,0.2023,0.2105,0.213,0.2194,0.2208,0.2225,0.2239,0.2222,0.2291,0.2297,0.2303,0.2327,0.2335,0.2232,0.2232,0.2232,0.2232,0,0.1851,0.1887,0.1914,0.1957,0.1983,0.2022,0.2042,0.2067,0.2073,0.209,0.2144,0.2174,0.2218,0.2233,0.2239,0.2299,0.2293,0.2286,0.2269,0.2312,0.2335,0.2344,0.2234,0.2234,0.2233,0.2233,0,0,0.1902,0.1952,0.1962,0.1983,0.2022,0.2052,0.2093,0.2134,0.2157,0.2189,0.2226,0.2281,0.2276,0.2302,0.2312,0.2341,0.2391,0.2332,0.2333,0.2345,0.2463,0.247,0.248,0.2392,0.2394,0.2395,0.2461,0,0.1955,0.2026,0.2038,0.2101,0.2137,0.2141,0.2178,0.2208,0.2225,0.2261,0.2281,0.2321,0.2309,0.2325,0.2355,0.2379,0.2416,0.2374,0.2431,0.2433,0.2424,0.2491,0.2498,0.2559,0.247,0.2471,0.2472,0,0.2025,0.2058,0.2125,0.2162,0.2178,0.221,0.2251,0.2283,0.2319,0.233,0.2359,0.2366,0.2413,0.2392,0.2458,0.243,0.2454,0.247,0.2472,0.2481,0.2457,0.2504,0.2578,0.2588,0.2486,0.2485,0.2484,0,0.206,0.2121,0.217,0.2187,0.2231,0.2254,0.2274,0.2307,0.2333,0.237,0.2387,0.2429,0.2453,0.2487,0.2507,0.2489,0.2574,0.2553,0.2588,0.2588,0.2607,0.2606,0.2689,0.2618,0.2618,0.2617,0.2617,0,0.2119,0.2161,0.2186,0.2217,0.2265,0.228,0.2328,0.2348,0.2378,0.2415,0.2421,0.2456,0.2478,0.2518,0.2534,0.2589,0.2599,0.2612,0.2616,0.2613,0.2612,0.2631,0.2629,0.262,0.2619,0.2619,0.2618,0,0.2167,0.2185,0.2239,0.2276,0.2287,0.2321,0.2354,0.2386,0.2403,0.245,0.2462,0.2491,0.2538,0.2561,0.2619,0.263,0.2694,0.2694,0.2681,0.2684,0.2718,0.2716,0.2819,0.2835,0.275,0.275,0.2751,0,0.2204,0.2236,0.2277,0.2301,0.2321,0.236,0.2386,0.2403,0.2431,0.2475,0.2502,0.2549,0.2587,0.2663,0.2691,0.2737,0.274,0.2773,0.2747,0.2744,0.2745,0.2744,0.2749,0.2778,0.2779,0.278,0.278,0,0.227,0.2278,0.2314,0.2355,0.2386,0.2419,0.2452,0.2472,0.2495,0.2526,0.2573,0.2603,0.2663,0.2711,0.2759,0.2782,0.2787,0.2788,0.2799,0.2797,0.2791,0.2799,0.2698,0.2786,0.2785,0.2785,0.2785,0.2784,0.2316,0.2347,0.2381,0.2422,0.2448,0.2479,0.2512,0.2534,0.2573,0.2622,0.263,0.2681,0.272,0.2784,0.281,0.2852,0.2845,0.286,0.2865,0.2869,0.2873,0.2781,0.2861,0.2861,0.2861,0.2861,0.286,0,0.2386,0.2408,0.2446,0.2491,0.2525,0.2523,0.2561,0.259,0.2634,0.2668,0.2706,0.2763,0.281,0.2842,0.2891,0.2919,0.2923,0.2932,0.2932,0.2938,0.2874,0.2862,0.2928,0.2928,0.2928,0.2928,0.2928,0.2928,0.2426,0.2478,0.2491,0.2557,0.258,0.2629,0.2651,0.2681,0.2709,0.2771,0.281,0.283,0.2865,0.2916,0.2961,0.297,0.2989,0.2999,0.3008,0.2949,0.2942,0.2935,0.2923,0.3002,0.3002,0.3068,0.3069,0.3069]},{"header":{"parameterUnit":"m.s-1","parameterCategory":1,"la1":30.2991,"la2":30.254,"lo1":-89.0895,"lo2":-89.0444,"dy":0.0017,"dx":0.0017,"nx":28,"ny":28,"refTime":"2024-05-14T21:00:00:Z","depth":0,"parameterNumber":3,"parameterNumberName":"V-component_of_WINDS"},"data":[0,0,0,0,0,0,0,0,0,0,0,0,0,0,0,0,0,0,0,0,0,0,0,0,0,0,0,0,0,0,0,0,0,0,0,0,0,0,0,0,0,0,0,0,0,0,0,0,0,0,0,0,0,0,0,0,0,0,-1.3718,-1.3717,0,-1.3631,-1.363,-1.3629,-1.3613,-1.3613,-1.3614,-1.3615,-1.3519,-1.3516,-1.3512,0,0,0,0,0,0,0,0,0,0,0,0,0,-1.3862,-1.386,-1.3718,-1.3717,-1.3716,-1.3631,-1.363,-1.3629,-1.3613,-1.3614,-1.3614,-1.3615,-1.352,-1.3516,-1.3512,0,0,0,0,0,0,0,0,0,0,0,0,0,-1.379,-1.3859,-1.3718,-1.3698,-1.3695,-1.3631,-1.363,-1.3628,-1.3612,-1.3614,-1.3615,-1.3616,-1.3521,-1.3516,-1.3512,-1.346,0,0,-1.3497,-1.3495,0,0,0,0,0,0,0,0,-1.3794,-1.3784,-1.3702,-1.3699,-1.3696,-1.3634,-1.3645,-1.3571,-1.3612,-1.3644,-1.3615,-1.3616,-1.3556,-1.3548,-1.3529,-1.3455,-1.3451,-1.3496,-1.3493,-1.3491,-1.349,0,0,0,0,0,0,0,-1.3799,-1.3788,-1.3683,-1.3701,-1.3697,-1.369,-1.3681,-1.3631,-1.3594,-1.3641,-1.364,-1.363,-1.3554,-1.3534,-1.3527,-1.345,-1.3496,-1.3492,-1.3489,-1.3487,-1.3325,-1.3323,0,0,0,0,0,0,-1.3809,-1.3792,-1.3686,-1.3681,-1.3749,-1.3687,-1.3677,-1.3653,-1.3595,-1.3587,-1.3629,-1.3629,-1.3542,-1.3532,-1.3523,-1.3456,-1.3491,-1.3487,-1.3484,-1.3326,-1.3324,-1.3323,0,0,0,0,0,0,-1.3812,-1.3799,-1.3689,-1.3736,-1.3722,-1.3683,-1.3656,-1.365,-1.363,-1.3586,-1.3579,-1.3616,-1.3542,-1.353,-1.3475,-1.3452,-1.3485,-1.348,-1.3328,-1.3325,-1.3323,-1.3323,0,0,0,0,0,0,-1.3816,-1.3801,-1.3782,-1.3736,-1.3719,-1.3645,-1.3655,-1.3648,-1.3622,-1.3622,-1.3571,-1.3564,-1.3542,-1.3483,-1.347,-1.3446,-1.3476,-1.3329,-1.3327,-1.3324,-1.3324,-1.3321,-1.3318,0,0,0,0,0,-1.3821,-1.3785,-1.3782,-1.3769,-1.3696,-1.3644,-1.3634,-1.3612,-1.3621,-1.3601,-1.3572,-1.3565,-1.3458,-1.3477,-1.3463,-1.3437,-1.3331,-1.3327,-1.3324,-1.3326,-1.3321,-1.3318,0,0,0,0,0,0,-1.3828,-1.3779,-1.3774,-1.3723,-1.3688,-1.3642,-1.3616,-1.3609,-1.3569,-1.357,-1.3542,-1.353,-1.3476,-1.3452,-1.3474,-1.3382,-1.3394,-1.3388,-1.34,-1.3396,-1.3392,-1.3398,-1.3472,0,0,0,0,0,-1.3824,-1.3788,-1.3746,-1.3704,-1.3687,-1.3655,-1.3631,-1.3617,-1.3579,-1.3564,-1.3531,-1.3492,-1.3449,-1.3421,-1.338,-1.3321,-1.3308,-1.3296,-1.3293,-1.329,-1.3285,-1.3248,-1.3241,-1.3312,-1.3312,-1.3312,0,0,-1.3814,-1.3783,-1.3762,-1.3705,-1.3676,-1.3637,-1.3642,-1.3601,-1.3571,-1.3557,-1.3503,-1.3477,-1.3432,-1.3374,-1.3347,-1.3352,-1.3262,-1.3286,-1.3285,-1.328,-1.3244,-1.3237,-1.3232,-1.331,-1.3311,-1.3311,0,0,-1.3776,-1.375,-1.3711,-1.3682,-1.364,-1.3618,-1.3609,-1.3563,-1.3546,-1.3492,-1.348,-1.3442,-1.337,-1.3337,-1.3311,-1.3258,-1.3249,-1.3245,-1.3226,-1.3191,-1.3185,-1.318,-1.3158,-1.3151,-1.324,-1.324,-1.324,0,-1.3768,-1.3711,-1.3691,-1.365,-1.3624,-1.3611,-1.3569,-1.3542,-1.3487,-1.3467,-1.3474,-1.3381,-1.335,-1.3283,-1.327,-1.325,-1.3236,-1.325,-1.3188,-1.3183,-1.3177,-1.3156,-1.3148,-1.324,-1.324,-1.324,-1.324,0,-1.3702,-1.3663,-1.3636,-1.3584,-1.3555,-1.3514,-1.3485,-1.3457,-1.3445,-1.3422,-1.3365,-1.3327,-1.3276,-1.3259,-1.3247,-1.3189,-1.3193,-1.3195,-1.3205,-1.3171,-1.315,-1.3141,-1.3239,-1.3239,-1.3239,-1.3239,0,0,-1.3665,-1.3603,-1.3593,-1.3569,-1.352,-1.3487,-1.3444,-1.3396,-1.3371,-1.3333,-1.3293,-1.3232,-1.3232,-1.3203,-1.3186,-1.3156,-1.3112,-1.316,-1.3158,-1.315,-1.3041,-1.3038,-1.303,-1.3107,-1.3105,-1.3104,-1.3044,0,-1.3619,-1.3544,-1.3524,-1.3458,-1.3419,-1.3406,-1.3367,-1.3332,-1.3308,-1.3269,-1.3242,-1.3198,-1.3204,-1.3185,-1.3155,-1.3124,-1.3089,-1.3128,-1.3066,-1.3064,-1.3075,-1.3019,-1.3016,-1.2962,-1.3036,-1.3035,-1.3034,0,-1.3555,-1.3517,-1.3448,-1.3402,-1.3385,-1.3351,-1.3304,-1.3268,-1.3226,-1.3211,-1.3177,-1.3163,-1.3113,-1.3129,-1.3058,-1.3085,-1.3058,-1.3039,-1.3036,-1.3027,-1.3045,-1.3005,-1.2944,-1.2935,-1.3021,-1.3022,-1.3023,0,-1.3531,-1.3462,-1.3412,-1.3391,-1.3337,-1.3313,-1.3289,-1.3248,-1.322,-1.3178,-1.3158,-1.311,-1.3083,-1.3045,-1.3017,-1.3031,-1.2947,-1.2961,-1.2929,-1.293,-1.291,-1.2911,-1.2841,-1.2898,-1.2898,-1.2898,-1.2898,0,-1.3479,-1.3437,-1.34,-1.3368,-1.3319,-1.3295,-1.3246,-1.3221,-1.3185,-1.3145,-1.3131,-1.3094,-1.3061,-1.3018,-1.2995,-1.2938,-1.2926,-1.291,-1.2904,-1.2909,-1.2911,-1.2889,-1.2891,-1.2896,-1.2897,-1.2897,-1.2897,0,-1.3443,-1.3417,-1.3361,-1.3314,-1.3301,-1.3267,-1.3225,-1.3192,-1.3169,-1.3119,-1.3106,-1.3067,-1.3016,-1.2985,-1.292,-1.2904,-1.284,-1.2837,-1.2854,-1.2851,-1.282,-1.2822,-1.273,-1.2715,-1.2786,-1.2785,-1.2785,0,-1.3411,-1.3378,-1.3328,-1.3302,-1.3278,-1.3236,-1.3207,-1.3181,-1.3151,-1.3099,-1.3071,-1.302,-1.2977,-1.2895,-1.2859,-1.2808,-1.2801,-1.2773,-1.2793,-1.2799,-1.2796,-1.2798,-1.2792,-1.2768,-1.2768,-1.2767,-1.2767,0,-1.3355,-1.3344,-1.3304,-1.3258,-1.3224,-1.3187,-1.3149,-1.3128,-1.3095,-1.3061,-1.3009,-1.2976,-1.291,-1.2857,-1.2803,-1.2774,-1.2763,-1.2761,-1.275,-1.2754,-1.2764,-1.2755,-1.2841,-1.2763,-1.2763,-1.2763,-1.2764,-1.2764,-1.3317,-1.3287,-1.3246,-1.3201,-1.317,-1.3135,-1.3101,-1.3073,-1.303,-1.2976,-1.2962,-1.2907,-1.2862,-1.2789,-1.2759,-1.2713,-1.2717,-1.2702,-1.2698,-1.2694,-1.2691,-1.2775,-1.2703,-1.2703,-1.2703,-1.2703,-1.2703,0,-1.3258,-1.3231,-1.319,-1.3139,-1.3102,-1.3098,-1.3056,-1.3024,-1.2977,-1.2937,-1.2895,-1.2834,-1.2782,-1.2742,-1.2688,-1.2659,-1.2652,-1.2645,-1.2645,-1.2638,-1.2693,-1.2706,-1.2651,-1.2651,-1.2651,-1.2651,-1.2651,-1.2651,-1.3223,-1.3169,-1.3152,-1.3082,-1.3054,-1.3002,-1.2977,-1.2943,-1.2911,-1.2844,-1.2802,-1.2777,-1.2735,-1.2678,-1.2629,-1.2618,-1.2597,-1.259,-1.2578,-1.2629,-1.2635,-1.264,-1.2652,-1.2587,-1.2587,-1.2527,-1.2526,-1.2526]}]]